map of NCY home
NCY - Airport
Location
City:  Annecy, Rhône-Alpes, France
Name:Meythet
ICAO:LFLP
IATA:NCY

Details
Type:Airport (Aerodrome, Airfield)
Use:Public/Civil
Latitude:45°55'51"N (45.930775)
Longitude:6°06'23"E (6.106289)
Elevation:1519 ft (463 m)
Variation:1.86°E (WMM2015 magnetic declination)
0.12° annual change
Runways:2
Longest:5299 × 98 ft (1615 × 30 m)

Time
Time Zone:UTC+1 (DST+2)
Local Time:

Weather
METAR:LFLP 160900Z AUTO 27002KT 5000 BR OVC006 02/02 Q1016 TEMPO 2000 -RA BR
TAF:LFLP 160800Z 1609/1709 VRB05KT 8000 BKN020 PROB40
TEMPO 1609/1709 2000 -RA BR BKN007 BKN012 PROB30
TEMPO 1700/1709 1000 -RASN OVC004

Related Locations
Nearby:
Farthest:CHT: 12241 mi / 19700 km
Waitangi [Tuuta], CIT, NZ

Find:

   beyond  
but within

Other Information
Maps:
NOTAMs:
Links:
Sources:

  
  • flag of France
  • flag of Rhône-Alpes
  

Sectional Chart

Flight Planning
at skyvector.com

Satellite Image

Google Maps Satellite view

 

Copyright © 2004-2018 Karl L. Swartz. All rights reserved.
The Great Circle Mapper name and logo are trademarks of the Great Circle Mapper.
All other trademarks mentioned herein belong to their respective owners.
Please see credits for attibutions and further copyright information.

  Follow gcmap on Facebook Follow gcmap on Twitter Follow gcmap on Google+ GCmap on LinkedIn

hCard Microformat

Geo Microformat